SCP
0 0 0 0 0 0 0 0 0 0 1 1 1 0 0 0 0 0 0 0 0 0 0 0 0 0 0 0 0 0 0 0 0 0 0 0 0 0 0 0 0 0 0 0
0 0 0 0 0 0 0 0 0 1 1 1 1 0 0 0 0 0 0 0 0 0 0 0 0 0 0 0 0 0 0 0 0 0 0 0 0 0 0 0 0 0 0 0
0 0 0 0 0 0 0 0 1 1 1 0 0 0 0 0 0 0 0 0 0 0 0 0 0 0 0 0 0 0 0 0 0 0 0 0 0 0 0 0 0 0 0 0
0 0 0 0 0 0 0 0 1 1 0 0 0 0 0 0 0 0 0 0 0 0 0 0 0 0 0 0 0 0 0 0 0 0 0 0 0 0 0 0 0 0 0 0
0 0 0 0 0 0 0 0 0 0 0 0 0 0 0 0 0 0 0 0 0 0 0 0 0 0 0 0 0 0 0 0 0 0 0 0 0 0 0 0 0 0 0 0
0 0 0 0 0 0 0 0 0 0 0 0 0 0 0 0 0 0 0 0 0 0 0 0 0 0 0 0 0 0 0 0 0 0 0 0 0 0 0 0 0 0 0 0
0 0 0 0 0 0 0 0 0 0 0 0 0 0 0 0 0 0 0 0 0 0 0 0 0 0 0 0 0 0 0 0 0 0 0 0 0 0 0 0 0 0 0 0
0 0 0 0 0 0 0 0 0 0 0 0 0 0 0 0 0 0 0 0 0 0 0 0 0 0 0 0 0 0 0 0 0 0 0 0 0 0 0 0 0 0 0 0
0 0 0 0 0 0 0 0 0 0 0 0 0 0 0 0 0 0 0 0 0 0 0 0 0 0 0 0 0 0 0 0 0 0 0 0 0 0 0 0 0 0 0 0
0 0 0 0 0 0 0 0 0 0 0 0 0 0 0 0 0 0 0 0 0 0 0 0 0 0 0 0 0 0 0 0 0 0 0 0 0 0 0 0 0 0 0 0
0 0 0 0 0 0 0 0 0 0 0 0 0 0 0 0 0 0 0 0 0 0 0 0 0 0 0 0 0 0 0 0 0 0 0 0 0 0 0 0 0 0 0 0
0 0 0 0 0 0 0 0 0 0 0 0 0 0 0 0 0 0 0 0 0 0 0 0 0 0 0 0 0 0 0 0 0 0 0 0 0 0 0 0 0 0 0 0
0 0 0 0 0 0 0 0 0 0 0 0 0 0 0 0 0 0 0 0 0 0 0 0 0 0 0 0 0 0 0 0 0 0 0 0 0 0 0 0 0 0 0 0
0 0 0 0 0 0 0 0 0 0 0 0 0 0 0 0 0 0 0 0 0 0 0 0 0 0 0 0 0 0 0 0 0 0 0 0 0 0 0 0 0 0 0 0
0 0 0 0 0 0 0 0 0 0 0 0 0 0 0 0 0 0 0 0 0 0 0 0 0 0 0 0 0 0 0 0 0 0 0 0 0 0 0 0 0 0 0 0
0 0 0 0 0 0 0 0 0 0 0 0 0 0 0 0 0 0 0 0 0 0 0 0 0 0 0 0 0 0 0 0 0 0 0 0 0 0 0 0 0 0 0 0
0 0 0 0 0 0 0 0 0 0 0 0 0 0 0 0 0 0 0 0 0 0 0 0 0 0 0 0 0 0 0 0 0 0 0 0 0 0 0 0 0 0 0 0
0 0 0 0 0 0 0 0 0 0 0 0 0 0 0 0 0 0 0 0 0 0 0 0 0 0 0 0 0 0 0 0 0 0 0 0 0 0 0 0 0 0 0 0
0 0 0 0 0 0 0 0 0 0 0 0 0 0 0 0 0 0 0 0 0 0 0 0 0 0 0 0 0 0 0 0 0 0 0 0 0 0 0 0 0 0 0 0
0 0 0 0 0 0 0 0 0 0 0 0 0 0 0 0 0 0 0 0 0 0 0 0 0 0 0 0 0 0 0 0 0 0 0 0 0 0 0 0 0 0 0 0
0 0 0 0 0 0 0 0 0 0 0 0 0 0 0 0 0 0 0 0 0 0 0 0 0 0 0 0 0 0 0 0 0 0 0 0 0 0 0 0 0 0 0 0
0 0 0 0 0 0 0 0 0 0 0 0 0 0 0 0 0 0 0 0 0 0 0 0 0 0 0 0 0 0 0 0 0 0 0 0 0 0 0 0 0 0 0 0
0 0 0 0 0 0 0 0 0 0 0 0 0 0 0 0 0 0 0 0 0 0 0 0 0 0 0 0 0 0 0 0 0 0 0 0 0 0 0 0 0 0 0 0
0 0 0 0 0 0 0 0 0 0 0 0 0 0 0 0 0 0 0 0 0 0 0 0 0 0 0 0 0 0 0 0 0 0 0 0 0 0 0 0 0 0 0 0
0 0 0 0 0 0 0 0 0 0 0 0 0 0 0 0 0 0 0 0 0 0 0 0 0 0 0 0 0 0 0 0 0 0 0 0 0 0 0 0 0 0 0 0
0 0 0 0 0 0 0 0 0 0 0 0 0 0 0 0 0 0 0 0 0 0 0 0 0 0 0 0 0 0 0 0 0 0 0 0 0 0 0 0 0 0 0 0
0 0 0 0 0 0 0 0 0 0 0 0 0 0 0 0 0 0 0 0 0 0 0 0 0 0 0 0 0 0 0 0 0 0 0 0 0 0 0 0 0 0 0 0
Wind_Speed
7 8 8 9 9 8 9 11 7 1 4 5 8 11 12 13 13 13 12 12 11 11 10 10 10 10 10 10 10 10 10 11 10 9 8 8 7 7 6 6 6 5 4 4
12 9 7 7 7 5 6 7 5 7 6 9 11 13 13 12 13 13 12 11 11 11 10 10 9 9 9 9 9 9 9 9 8 7 7 6 6 6 5 5 5 4 5 5
11 11 9 3 6 7 8 11 8 7 7 12 13 12 10 11 12 12 12 11 10 10 9 8 8 8 8 8 8 8 8 7 6 6 6 5 5 5 4 4 3 3 3 4
9 9 7 6 11 10 10 14 13 14 13 13 14 14 11 10 12 11 11 10 9 8 8 7 7 7 7 7 7 7 6 5 5 5 5 4 4 4 3 2 2 2 2 3
6 8 2 7 11 11 7 10 11 11 13 14 15 14 11 9 10 11 10 9 8 7 7 7 6 6 6 6 5 5 5 5 5 5 4 4 4 3 2 2 2 1 2 3
7 8 4 6 8 9 3 5 8 9 9 10 7 5 5 7 9 10 9 8 7 7 7 6 5 5 5 5 5 5 5 5 4 4 3 3 3 2 2 2 2 2 2 2
6 4 4 9 12 8 3 4 6 7 7 7 5 7 10 10 9 9 9 8 7 6 6 5 5 4 4 5 5 5 5 4 4 3 2 2 2 2 2 2 2 2 2 2
5 3 4 11 9 8 5 5 7 9 11 13 14 14 12 11 10 9 8 7 6 5 5 4 4 4 5 5 4 4 4 3 3 2 3 3 2 2 3 3 3 2 2 2
4 3 4 6 7 6 5 7 8 10 12 14 14 13 12 11 9 8 8 6 5 6 6 5 4 4 4 4 3 3 2 2 1 1 2 2 3 3 3 3 3 4 4 4
3 5 6 7 7 8 8 8 9 11 13 13 14 13 12 10 9 7 6 6 5 6 6 6 5 4 3 3 2 2 1 1 1 0 1 1 2 3 4 5 6 6 6 5
3 4 6 7 8 8 8 10 11 12 12 13 13 12 11 9 8 7 6 6 6 6 6 6 5 4 4 3 2 2 1 1 1 0 0 1 4 5 5 6 5 5 6 6
3 4 5 6 7 7 8 10 11 12 12 11 11 11 10 9 7 7 6 6 6 6 6 5 4 4 4 3 2 2 2 2 2 2 1 1 4 5 8 6 6 5 4 4
6 7 8 8 8 9 10 10 11 12 12 11 10 10 9 9 7 7 7 7 6 6 5 4 4 3 3 2 3 3 2 3 3 3 2 3 2 3 4 4 2 1 1 3
7 7 8 8 9 10 11 12 12 12 12 11 10 9 9 9 8 8 7 6 6 5 4 3 3 3 2 2 2 2 2 2 2 2 2 2 2 3 3 3 2 1 2 2
6 7 9 10 11 11 11 12 12 12 11 10 9 9 9 9 8 8 6 6 4 4 4 4 4 3 3 3 3 3 2 2 1 2 1 3 3 3 4 5 4 4 2 2
8 10 11 11 12 11 11 12 12 12 11 10 9 9 9 9 8 7 5 5 4 5 5 4 4 4 4 3 3 2 2 2 2 2 2 4 4 4 5 4 4 4 4 5
9 10 11 11 12 12 11 11 11 11 11 10 10 10 9 8 7 6 5 5 4 4 4 4 5 5 4 4 5 3 3 4 2 1 4 5 4 5 4 4 4 3 3 4
8 10 11 12 12 12 12 12 11 11 10 11 10 9 8 7 6 5 5 4 3 4 4 5 5 6 5 5 5 5 2 3 3 5 5 5 4 3 4 4 4 4 3 2
11 12 12 12 12 12 12 11 11 11 11 10 9 8 7 6 6 5 3 2 3 4 4 4 3 5 2 4 4 4 1 3 4 5 5 4 2 4 4 4 4 4 4 3
12 13 13 13 13 12 12 11 11 10 9 9 9 8 7 6 5 4 3 4 4 4 3 2 4 3 3 4 5 4 3 4 5 5 4 4 4 4 4 4 4 4 3 3
13 13 14 13 13 12 12 12 10 9 9 9 8 7 7 5 4 3 2 4 4 4 3 1 2 4 5 6 8 3 4 4 4 5 5 5 5 5 5 4 4 4 3 3
13 13 13 13 12 11 11 10 9 10 9 8 8 8 6 5 4 4 4 4 5 3 4 3 5 6 8 9 6 3 5 4 4 5 5 4 5 5 5 4 4 4 3 2
12 12 13 13 12 11 11 10 10 9 8 8 7 7 5 3 2 4 5 4 5 4 4 5 4 6 10 8 3 5 5 4 4 5 5 5 5 5 5 5 4 4 3 3
12 12 12 12 11 11 11 10 9 7 8 7 7 6 5 4 3 6 7 6 5 4 5 3 3 6 8 6 2 5 5 4 4 5 5 5 5 5 4 4 4 4 4 5
12 12 12 12 11 10 10 10 9 8 8 6 7 6 5 3 4 7 7 7 7 4 5 4 6 8 7 2 6 7 6 6 5 4 5 5 5 6 5 4 4 4 4 4
11 10 10 9 8 7 9 9 8 8 7 7 6 6 4 4 6 6 6 7 7 6 5 6 6 7 3 5 6 5 5 4 3 4 5 5 6 6 5 4 5 5 5 4
11 9 8 9 9 9 9 9 8 8 8 7 7 6 5 5 5 5 5 6 5 5 3 3 2 3 5 6 5 4 4 4 4 4 4 4 5 4 4 5 4 4 5 5
Wind_Direction
278 261 256 265 277 295 297 289 278 330 103 105 113 117 116 113 111 107 101 96 91 85 80 78 75 71 71 72 73 77 80 79 78 78 78 77 75 72 68 66 70 63 58 56
295 269 258 273 302 294 293 317 9 80 81 86 101 105 110 116 114 109 104 99 95 91 85 81 79 79 78 77 76 79 82 82 82 82 81 81 81 75 70 63 57 50 45 45
298 308 295 319 22 20 27 22 32 59 91 108 102 98 104 110 110 109 105 99 92 90 86 83 80 82 82 82 82 81 81 83 85 83 78 73 74 75 69 64 59 50 41 52
299 307 294 45 25 25 51 50 58 82 90 89 94 88 81 92 105 106 106 105 100 96 92 89 88 87 87 88 90 91 93 91 86 83 80 78 72 64 57 52 49 43 38 47
299 297 303 45 10 358 17 55 58 91 103 106 108 94 73 76 92 100 101 100 100 102 104 101 99 100 102 102 106 101 90 81 73 69 68 64 63 60 51 30 23 13 38 32
297 310 351 26 344 321 336 74 54 90 113 130 135 108 106 103 102 103 103 104 106 108 109 110 116 122 120 115 104 95 89 81 74 65 56 48 48 34 19 351 352 358 27 18
308 308 61 360 342 338 9 58 57 83 92 94 76 98 122 120 112 111 112 115 118 119 121 130 141 137 119 107 96 90 86 79 69 55 56 62 37 13 348 350 3 3 0 3
345 350 29 3 16 38 61 83 90 91 96 99 103 111 119 120 119 120 122 125 127 127 127 127 125 118 104 97 95 95 92 85 74 35 11 45 23 18 10 2 353 359 359 8
28 55 84 51 58 68 82 90 98 106 113 118 119 121 121 121 123 126 130 136 143 137 126 115 105 97 97 100 101 99 97 97 87 41 35 26 11 28 29 23 7 7 11 11
69 99 91 78 71 70 76 91 105 115 122 124 124 126 128 129 130 135 144 149 147 131 120 113 109 104 100 96 97 93 77 100 198 120 17 68 42 34 43 29 17 8 12 7
61 86 91 76 73 80 87 98 107 114 120 124 127 130 132 132 136 143 142 132 128 121 118 117 117 113 105 88 70 66 22 316 308 37 37 99 86 51 54 64 50 22 13 2
55 62 91 94 86 95 103 108 115 118 118 123 128 129 132 133 137 136 129 123 119 118 118 118 113 101 87 75 53 26 2 354 346 360 27 78 119 108 69 97 106 78 46 7
75 81 94 96 91 95 104 110 115 119 123 125 126 131 131 132 134 129 122 118 118 118 114 108 100 89 73 49 38 32 11 0 343 359 23 47 72 111 126 125 140 154 325 332
105 104 106 108 105 106 110 114 117 119 122 125 130 133 132 129 124 120 116 117 120 120 115 106 88 63 43 38 28 2 352 55 344 359 34 41 48 61 76 96 110 125 202 282
104 108 117 117 116 116 119 123 124 124 126 128 131 130 125 119 118 116 115 111 109 99 80 69 58 39 19 16 6 334 348 43 12 357 42 57 50 63 66 64 56 51 48 21
114 119 125 127 128 131 134 134 131 132 133 132 129 124 121 119 116 114 113 107 91 72 54 40 27 10 360 0 341 304 100 74 347 2 59 68 58 59 65 64 58 48 37 22
136 137 138 138 139 140 139 135 134 135 135 135 130 127 126 122 121 120 111 98 88 76 54 38 17 352 350 6 345 335 130 145 190 31 60 65 61 62 68 62 60 58 53 37
138 141 145 145 146 144 144 141 137 137 139 135 133 133 133 134 127 120 115 119 120 95 63 46 17 333 349 24 357 333 7 105 98 76 74 63 59 71 74 72 68 61 57 53
133 136 140 144 145 144 143 141 142 143 141 137 136 134 131 125 121 124 134 135 108 95 65 46 314 285 343 58 334 289 329 84 93 91 98 114 92 80 75 74 77 72 56 42
137 140 141 141 142 140 140 142 142 141 139 139 138 137 131 127 134 132 110 77 61 62 66 25 314 352 25 59 332 320 60 72 87 90 89 91 81 80 77 75 79 79 70 54
142 142 141 141 141 142 143 144 145 144 143 144 144 139 134 143 149 136 148 119 86 39 349 223 316 9 29 0 312 315 63 61 76 84 79 82 83 79 74 70 71 77 75 58
143 143 144 143 144 143 143 147 151 149 149 151 147 141 145 156 145 119 77 84 96 21 333 53 63 37 3 331 306 41 64 58 75 87 81 78 83 86 81 75 70 70 69 62
145 147 147 149 148 147 151 157 157 155 155 153 149 154 165 175 166 145 118 95 85 39 36 54 31 358 344 315 327 72 63 50 60 83 90 84 83 83 83 83 80 74 63 53
149 149 151 152 152 155 160 160 155 159 164 161 153 158 167 166 129 104 105 103 76 67 77 80 324 317 315 289 355 66 68 63 62 72 88 99 97 92 89 85 85 80 71 63
154 154 155 157 161 162 161 159 161 171 175 162 158 171 192 158 120 111 118 124 145 159 143 175 245 269 278 310 69 71 61 49 35 24 65 73 88 92 86 81 78 75 66 63
156 159 158 166 167 166 169 172 176 180 176 169 172 175 168 140 129 134 151 155 163 189 192 188 206 223 221 81 77 88 111 133 124 88 67 72 79 82 80 81 83 79 71 58
160 160 164 175 175 179 181 183 183 182 179 177 174 169 167 158 152 157 163 161 170 186 185 172 140 109 91 88 88 86 84 77 74 85 88 82 85 91 94 83 76 78 83 71